GFSNGP_500_rhum_024.txt.gz
RH
26 26 29 29 20 17 17 18 20 24 23 24 21 19 20 20 20 19 20 22 24 24 24 24 24 27 30 32 40 57 60 59 58 66 65 94 98 98 82 80 86 68 56 46
27 28 27 28 25 22 22 24 24 25 22 21 20 20 19 19 18 20 25 27 26 25 26 26 28 32 37 41 46 64 63 58 56 65 95 100 100 94 84 86 71 56 49 34
25 27 24 20 24 26 25 25 26 25 26 23 23 22 23 24 25 27 28 27 27 28 30 30 33 39 48 52 68 62 61 66 90 94 100 100 98 75 83 88 51 46 37 13
22 24 19 23 26 28 25 27 28 28 30 27 26 23 23 24 24 28 29 30 31 33 34 37 46 52 61 71 58 71 93 99 94 98 100 100 97 97 100 83 55 35 15 9
15 17 14 17 16 18 19 21 23 22 22 20 22 25 31 33 38 42 43 42 39 41 45 52 52 63 64 60 83 91 96 95 99 100 100 100 99 100 100 89 57 18 10 11
19 13 8 12 13 14 12 12 15 17 22 28 32 37 41 43 45 46 46 47 50 52 53 52 62 61 64 73 85 96 96 100 100 100 100 100 100 100 94 81 39 14 11 12
7 7 6 8 8 8 10 12 9 10 14 16 25 30 36 40 46 52 54 52 54 58 65 67 57 55 79 93 96 94 100 100 100 100 100 100 100 90 73 44 20 10 13 14
9 9 10 10 8 8 8 7 9 14 16 19 23 30 41 46 49 46 49 58 68 70 61 50 55 75 86 100 99 100 100 100 100 100 100 100 98 91 54 24 18 11 14 18
9 8 9 7 6 7 7 9 13 16 21 27 35 39 41 44 56 60 62 61 47 65 74 81 82 94 99 100 100 100 100 100 100 100 100 100 91 68 41 26 13 13 15 23
8 9 8 7 8 11 16 20 25 29 34 38 47 62 72 71 64 52 46 42 71 87 84 88 92 100 100 100 100 100 100 100 100 100 100 96 89 67 31 13 13 16 19 31
7 10 12 19 22 26 32 39 41 42 49 61 64 63 56 49 56 67 72 75 85 90 94 100 100 100 100 100 100 100 100 100 100 99 96 89 70 37 12 12 17 18 26 38
13 20 25 35 42 43 41 41 46 49 51 53 51 45 55 75 73 74 80 88 99 96 85 100 100 100 100 100 100 100 100 100 100 97 89 73 42 14 11 16 19 25 38 45
29 38 40 37 37 41 45 50 50 45 43 53 66 82 84 83 85 90 93 88 91 94 94 100 100 100 100 100 100 100 100 100 98 90 76 42 16 12 15 20 22 34 45 53
37 36 36 39 37 38 38 36 46 81 80 78 79 84 88 90 96 98 100 99 95 100 100 100 100 100 100 100 100 100 100 94 86 73 30 17 15 16 24 23 29 43 56 62
34 27 28 35 43 46 48 62 80 78 75 76 80 88 91 91 88 88 98 99 97 100 100 100 100 100 100 100 100 100 92 83 53 21 21 20 21 26 29 29 38 55 61 64
29 42 66 69 66 70 77 79 82 82 83 86 85 83 77 74 80 90 99 100 100 100 100 100 100 100 100 100 96 82 47 25 23 22 24 25 29 35 32 38 50 66 71 74
40 55 75 84 86 87 85 83 82 80 77 76 76 74 69 69 76 86 90 100 100 100 100 100 100 100 92 76 40 19 22 28 29 35 30 30 33 38 34 47 60 76 81 83
81 90 92 91 88 86 84 84 85 82 75 67 61 57 64 71 76 70 70 94 100 100 95 82 49 23 15 14 14 15 25 41 46 40 32 30 37 41 35 57 71 86 91 90
84 82 84 86 89 89 86 79 74 69 58 54 72 89 98 99 100 100 100 89 63 44 28 18 16 14 12 14 20 25 34 45 46 39 31 34 44 44 35 61 80 91 100 99
89 90 88 82 76 72 70 61 35 48 74 93 97 98 99 65 43 32 28 25 22 19 18 16 15 15 19 27 33 35 39 45 43 40 35 41 46 43 34 57 90 99 100 100
84 81 76 59 29 10 8 20 42 71 91 95 78 51 39 39 36 30 26 26 25 21 17 16 18 24 27 28 34 40 40 42 46 44 41 46 47 41 33 50 88 100 100 100
48 18 6 7 8 8 14 15 14 18 27 41 49 46 44 41 41 38 30 30 27 22 17 18 23 26 28 31 36 44 44 38 42 48 48 48 48 42 34 49 75 99 100 100
6 7 7 8 8 8 9 12 20 34 49 51 53 50 47 52 50 38 30 28 24 17 17 22 28 33 38 41 40 42 48 50 49 54 55 51 49 48 40 47 73 94 100 100
8 8 8 9 9 10 14 24 40 59 65 53 48 54 56 48 33 32 28 20 16 19 24 26 27 27 26 26 27 28 34 45 50 55 60 54 51 52 49 49 73 96 100 100
9 9 10 10 12 16 29 48 72 77 70 67 63 57 43 38 36 28 18 16 22 23 22 22 21 20 21 22 23 24 26 27 30 39 48 48 48 54 55 58 78 100 100 100
11 12 12 19 34 52 75 90 88 72 56 47 46 43 43 38 28 18 18 21 21 22 19 15 15 16 18 21 23 25 27 28 29 30 32 36 42 54 60 71 94 100 100 100
14 22 43 63 77 95 94 76 56 50 50 50 51 47 40 29 18 19 20 21 18 11 11 13 14 16 18 20 22 23 25 28 29 30 32 36 45 58 72 92 100 100 100 100

GFSNGP_500_rhum_030.txt.gz
RH
12 33 76 63 38 19 20 22 26 20 19 20 41 36 21 19 17 19 26 31 30 38 34 40 34 43 48 49 51 51 50 54 62 70 75 80 69 69 96 92 88 87 89 91
8 12 14 21 18 18 21 26 24 18 18 22 25 20 23 23 25 30 30 35 35 37 52 50 51 51 46 47 50 58 59 61 67 79 72 67 75 88 88 92 94 100 92 86
11 14 18 21 28 26 26 30 31 29 30 31 32 31 16 28 30 24 25 31 39 41 47 50 44 59 65 53 53 55 62 74 72 65 76 84 72 82 100 99 100 100 100 100
14 21 22 26 27 30 29 31 32 31 26 24 25 25 26 16 12 17 20 17 22 28 32 40 51 61 61 54 61 62 59 52 59 78 87 89 95 99 92 82 96 100 100 100
18 25 23 21 21 26 27 31 23 19 20 21 14 17 14 9 11 11 11 15 19 24 33 39 52 50 69 71 62 56 59 68 76 74 83 75 73 80 93 100 100 100 100 100
25 26 22 20 20 21 18 16 7 11 9 9 9 9 9 9 9 12 17 21 30 38 46 63 68 75 60 60 75 77 80 77 76 87 92 98 100 100 100 100 100 100 100 100
25 18 10 8 7 8 8 8 8 8 7 6 6 8 8 10 17 26 31 39 43 48 59 52 43 41 62 72 73 79 82 86 94 100 100 100 100 100 100 100 100 100 100 100
9 9 8 8 8 9 9 8 8 6 6 6 7 13 18 24 35 41 45 34 36 40 41 46 64 64 67 79 85 93 97 100 95 95 100 100 100 100 100 100 100 98 87 50
10 11 10 9 9 8 7 6 7 6 6 7 12 22 34 40 36 32 44 38 33 45 71 71 75 79 86 89 99 95 93 85 100 100 100 100 100 100 100 100 97 70 35 20
10 12 10 8 8 7 6 7 6 7 10 15 30 38 35 32 29 27 28 31 59 72 72 72 76 82 83 81 78 81 91 100 100 100 100 100 100 100 99 86 54 22 15 18
11 12 12 11 7 7 7 6 8 15 22 36 36 32 27 25 38 50 52 58 64 68 71 75 77 77 79 73 69 78 100 100 100 100 100 100 100 84 40 17 14 12 17 27
14 12 15 10 8 8 7 8 20 34 34 34 28 24 35 54 59 64 68 71 73 76 79 81 81 74 58 51 59 79 100 100 100 100 100 95 55 17 14 13 16 21 35 43
14 16 12 10 10 10 19 27 34 35 35 31 30 33 42 61 71 79 81 80 81 84 80 71 43 12 7 14 54 94 100 100 100 83 36 19 17 16 14 14 21 29 36 42
19 16 12 11 12 26 35 37 38 38 38 40 34 41 62 78 82 85 88 87 76 63 27 6 5 6 7 20 49 82 81 48 25 22 21 20 21 16 14 19 24 33 43 41
19 20 18 23 29 36 38 44 49 48 41 41 67 83 85 86 90 90 80 55 16 5 5 5 6 7 12 25 26 28 32 35 33 34 28 26 22 16 23 31 33 34 41 49
22 22 34 41 43 48 52 52 50 58 80 87 87 86 89 92 87 61 14 6 5 5 6 7 8 9 15 32 43 44 49 46 38 34 30 28 21 20 25 30 38 45 47 52
32 41 49 55 55 55 57 69 82 87 90 92 95 94 91 81 19 6 6 5 6 7 8 8 14 42 46 45 56 55 51 40 37 35 33 26 21 27 29 30 36 43 50 49
50 56 58 55 56 64 83 93 99 100 99 98 94 87 35 6 6 6 6 7 8 9 10 24 41 48 56 60 56 46 42 41 40 34 21 21 26 30 33 35 40 42 47 53
65 58 57 64 74 91 100 100 100 100 97 91 44 9 6 6 7 8 8 9 10 11 21 45 60 67 55 49 47 46 43 38 25 18 20 24 24 26 28 30 34 43 46 53
67 74 79 96 100 100 100 100 99 93 51 12 6 7 7 7 8 9 10 11 14 23 41 62 63 49 43 48 49 43 31 21 18 18 21 21 21 19 21 23 25 29 37 55
87 99 100 100 100 100 100 91 53 13 7 6 7 8 8 9 10 12 13 17 34 54 77 76 60 48 53 45 37 26 16 16 18 17 14 13 16 16 20 23 25 28 34 50
100 100 100 100 99 83 40 13 7 7 7 8 9 9 10 12 13 17 31 42 51 85 90 76 58 50 43 32 19 16 18 17 12 10 12 13 15 17 21 26 28 31 34 42
100 100 96 67 27 9 7 7 8 9 9 10 10 12 14 16 22 30 42 67 88 83 66 51 53 43 23 16 19 19 12 10 10 10 12 15 16 16 19 26 29 33 35 40
85 42 12 7 8 8 9 10 10 10 12 13 14 16 19 26 51 75 91 96 86 59 53 58 31 18 17 21 15 11 10 9 8 9 11 15 18 19 19 23 30 32 35 37
9 8 8 9 10 11 11 12 12 13 16 20 23 25 42 74 87 93 90 65 52 54 44 23 17 18 21 16 13 12 10 9 9 10 11 13 15 19 22 24 30 35 38 40
9 10 11 11 12 12 13 15 18 22 27 38 61 78 88 87 82 71 59 56 50 27 21 18 18 22 18 15 14 12 10 10 11 11 12 15 18 22 29 34 39 45 53 57
11 11 12 13 16 17 21 26 36 53 75 88 89 88 76 63 61 64 60 33 24 23 18 20 23 20 17 16 14 12 12 12 12 12 14 16 20 28 38 47 61 77 81 81

GFSNGP_500_rhum_033.txt.gz
RH
12 12 12 21 77 33 31 15 13 31 28 28 27 23 19 15 14 16 25 31 29 20 28 47 57 59 80 91 94 82 91 89 64 46 59 59 59 62 66 78 70 70 82 76
8 10 11 9 33 16 18 27 26 29 31 25 20 18 17 18 23 32 34 30 32 32 24 50 51 75 80 74 77 96 79 77 73 65 61 59 70 80 84 85 93 100 100 100
12 11 8 9 16 23 32 35 38 35 32 31 26 23 22 28 21 16 23 28 27 28 27 15 15 24 55 78 93 83 98 84 56 68 76 78 81 87 74 76 93 96 100 100
18 9 10 14 18 26 34 34 32 29 26 25 28 28 25 18 16 14 11 10 11 14 18 25 30 49 63 84 90 95 78 54 74 84 86 90 94 86 91 96 100 100 100 100
18 11 13 19 23 28 30 29 28 27 26 23 22 16 11 10 9 8 7 7 10 16 30 42 44 50 67 82 70 62 58 88 87 88 87 86 86 81 100 100 100 100 100 100
18 16 16 23 23 21 24 20 18 19 14 11 11 11 10 8 6 6 6 12 27 42 43 46 50 52 53 61 67 78 80 82 82 82 86 99 100 100 100 100 100 99 100 100
20 17 18 18 20 22 18 10 9 9 9 9 8 8 6 6 5 6 18 37 40 38 37 36 37 37 56 73 70 68 73 84 87 86 88 89 100 100 100 100 100 100 100 100
24 20 14 10 8 8 9 9 9 9 8 6 6 7 8 9 13 27 36 36 36 30 28 34 41 57 71 79 83 83 83 82 81 77 68 74 93 100 100 100 100 100 90 49
10 10 10 9 8 8 8 9 9 7 7 7 6 6 10 23 34 34 31 30 27 44 56 58 65 78 81 84 83 83 75 67 44 29 19 28 73 100 100 100 96 66 28 18
12 11 10 9 8 8 9 11 9 8 8 7 7 11 26 35 33 32 31 26 34 58 69 78 87 88 85 82 72 55 21 5 4 6 10 26 93 99 72 36 23 23 23 20
14 12 11 10 9 9 10 10 9 9 9 9 14 24 32 35 35 33 34 35 46 65 78 83 81 78 76 60 17 4 4 4 5 6 12 30 44 33 33 34 34 31 26 24
14 14 13 13 14 15 16 14 10 10 11 16 27 31 36 40 41 42 37 51 74 83 82 76 76 74 34 5 4 4 5 5 6 9 20 31 38 45 43 38 35 31 30 23
15 13 12 13 17 20 17 14 13 15 23 33 37 43 50 51 45 42 70 89 85 82 84 83 61 14 4 4 4 5 6 7 9 15 29 43 53 52 41 38 38 36 27 24
16 14 15 18 22 19 18 18 18 24 37 42 49 53 53 53 70 87 88 88 92 87 79 34 6 4 4 5 6 7 8 10 17 38 51 58 52 43 41 40 36 28 25 30
22 22 20 20 22 23 21 22 32 42 49 53 54 56 68 84 91 94 98 95 89 64 18 6 5 6 7 7 8 9 10 12 32 55 54 43 36 37 39 36 23 19 23 33
28 29 28 26 24 23 25 36 47 58 58 56 59 73 88 98 99 100 98 86 42 10 6 6 7 7 8 10 11 12 17 45 66 56 44 46 49 44 33 21 19 20 23 28
35 34 37 33 30 38 49 54 61 60 57 62 72 90 100 100 100 97 71 24 7 6 7 7 8 9 10 12 14 20 46 67 62 54 56 50 41 28 19 19 20 21 22 24
44 41 41 44 54 66 67 65 61 64 75 92 100 100 100 99 93 44 10 6 7 7 8 9 10 11 15 20 27 55 86 84 68 55 44 36 23 17 18 20 19 17 16 20
50 57 65 75 75 67 65 73 84 98 100 100 100 100 97 65 16 7 7 7 8 8 10 11 13 19 28 37 60 84 73 55 49 43 28 17 18 19 16 13 14 17 14 20
88 86 86 80 76 79 92 100 100 100 100 100 99 80 23 8 7 7 8 9 9 11 12 14 19 30 52 77 86 64 52 48 38 20 16 19 16 11 10 12 16 16 19 21
89 88 90 96 100 100 100 100 100 100 100 81 26 8 7 8 9 9 10 11 13 16 19 29 54 66 81 75 53 48 46 27 18 16 20 15 12 10 10 11 15 18 18 21
99 100 100 100 100 100 100 100 98 74 28 10 8 8 9 10 11 12 13 17 19 28 48 69 73 68 60 51 49 37 22 17 16 21 17 14 13 10 10 11 12 16 21 23
100 100 100 100 100 100 95 68 32 12 8 9 10 11 11 13 16 18 21 30 48 72 71 61 52 51 52 40 24 20 16 17 22 20 17 15 12 11 12 13 16 21 30 25
100 100 100 100 83 42 22 10 9 10 11 11 12 13 16 20 24 31 48 64 72 70 54 49 51 41 27 21 19 16 21 24 21 19 17 14 11 11 12 14 18 23 30 34
100 98 85 42 13 9 10 10 11 12 13 17 19 19 20 28 53 59 57 66 70 58 52 45 31 22 20 17 18 26 25 22 21 19 15 13 12 12 13 14 19 26 34 44
58 21 13 11 11 12 12 14 15 16 19 23 26 34 56 73 58 54 64 62 58 53 34 26 24 19 17 23 30 27 25 23 20 17 15 14 15 15 14 15 20 29 42 56
12 12 12 13 13 14 16 18 20 22 35 55 68 70 63 51 54 60 58 48 33 28 29 26 21 21 30 33 28 27 25 21 19 18 19 19 20 23 26 24 27 40 60 81

GFSNGP_500_rhum_039.txt.gz
RH
33 31 43 59 55 44 28 17 18 25 18 21 11 14 15 16 18 17 15 16 18 16 25 25 29 30 65 80 74 58 72 100 68 96 100 100 100 100 100 100 86 89 87 100
38 25 24 24 24 20 10 11 10 11 22 26 18 16 25 27 26 23 22 26 21 14 9 8 6 5 4 8 8 13 31 45 53 95 99 100 91 90 71 81 85 86 86 78
20 21 19 12 11 13 12 11 13 10 13 20 22 25 23 29 31 33 29 23 18 13 10 8 6 5 4 6 14 27 32 34 54 75 77 70 70 59 84 85 86 100 100 100
14 14 12 10 11 12 13 13 14 12 11 21 27 26 31 32 32 31 26 19 12 10 8 6 5 5 7 17 27 30 32 31 42 46 51 54 66 80 87 83 78 82 68 11
17 20 30 33 28 27 24 18 12 14 20 30 33 34 33 34 30 22 15 11 9 7 6 6 6 7 17 24 29 33 34 38 48 62 70 83 100 100 83 88 45 7 4 4
11 25 49 44 51 32 26 16 13 20 34 36 36 32 29 22 16 10 11 9 8 7 7 7 10 18 25 30 36 39 42 48 62 87 95 98 84 81 65 19 6 4 5 6
8 11 20 28 31 36 23 19 34 40 35 30 28 25 16 11 12 10 9 9 9 9 9 10 16 23 32 41 47 48 43 51 76 88 87 84 75 46 14 5 4 5 6 7
8 11 20 27 32 27 28 29 44 46 39 24 14 13 14 12 12 12 11 11 11 11 12 16 21 31 42 49 50 50 64 86 87 84 80 68 35 10 6 6 6 6 8 10
9 12 18 25 35 34 37 37 28 18 15 15 14 15 15 15 14 14 14 14 14 14 15 20 27 38 46 50 57 72 86 87 86 81 65 33 11 6 6 6 7 8 11 14
8 10 11 11 12 14 16 17 16 16 16 15 15 15 15 15 16 17 18 18 17 19 24 31 39 47 51 55 66 85 92 91 84 68 39 14 7 6 6 8 10 12 15 22
12 12 15 15 15 16 18 19 18 18 16 15 16 15 16 19 19 20 20 21 22 27 36 46 50 54 57 69 91 95 91 86 72 42 16 8 7 7 8 10 13 16 22 34
18 21 18 20 19 19 19 18 16 14 14 14 15 17 18 20 22 24 26 27 32 40 50 52 55 62 78 91 93 91 89 77 46 16 8 7 7 8 11 13 17 24 32 55
24 24 25 24 21 18 16 16 16 17 18 18 18 20 22 26 29 30 32 40 49 56 56 59 69 81 84 88 91 90 77 36 11 7 7 8 10 12 13 14 20 34 65 82
37 28 26 25 23 23 27 30 31 27 22 21 24 28 31 34 38 40 47 57 60 60 64 77 82 87 94 96 95 74 26 9 7 8 10 11 12 13 14 17 28 40 53 49
55 44 36 40 46 43 37 32 28 26 27 30 36 42 49 50 51 57 62 65 69 77 82 87 94 95 98 94 61 20 9 8 10 11 12 12 13 15 30 43 38 34 34 34
80 74 62 55 46 39 35 34 37 48 47 52 64 65 59 62 68 72 76 82 83 85 96 100 100 99 92 52 14 9 10 12 12 12 12 15 24 42 48 34 33 29 20 17
59 54 44 42 43 64 62 71 78 74 76 82 79 73 72 80 85 88 90 90 96 100 100 100 100 82 29 12 11 12 12 12 13 14 21 26 34 34 30 25 19 19 18 16
63 71 67 72 82 84 83 84 88 92 91 85 78 82 92 96 98 98 98 100 100 100 100 95 53 19 13 12 12 12 13 13 18 25 28 28 29 24 17 18 20 18 17 21
66 83 98 100 95 92 92 97 100 98 91 89 95 99 100 100 100 100 100 100 100 100 78 40 18 13 13 14 13 13 17 25 35 35 32 24 19 21 21 18 18 24 31 32
95 100 100 97 97 99 100 100 98 98 100 100 100 100 100 100 100 100 100 100 100 82 30 16 14 14 14 14 18 26 36 42 37 31 20 23 24 23 21 26 35 30 22 21
100 100 100 100 100 98 97 100 100 100 100 100 100 100 100 100 100 100 100 100 73 28 16 15 15 14 18 26 35 41 40 34 23 23 26 25 24 21 23 30 22 15 18 17
97 92 86 87 96 100 99 97 96 98 100 100 100 100 100 100 100 100 86 44 18 15 15 15 17 26 31 34 36 34 25 24 26 24 23 17 17 24 30 26 16 16 15 13
100 100 100 98 95 97 100 100 100 100 100 100 100 100 100 100 93 58 26 17 17 16 19 28 38 33 35 38 29 26 27 26 24 19 10 11 29 36 27 19 17 15 13 15
100 98 98 100 100 100 100 100 100 100 100 100 100 100 94 65 37 20 20 19 19 28 43 42 37 43 39 30 29 28 27 21 13 9 9 27 39 30 23 19 17 17 21 21
100 100 100 100 100 100 100 100 100 100 100 99 90 75 43 26 25 22 21 27 42 48 42 45 52 40 31 32 30 28 18 10 9 8 17 37 34 28 22 19 20 24 28 32
100 100 100 100 100 100 100 100 100 100 93 78 51 31 18 27 27 28 36 38 38 48 59 54 37 33 33 32 30 22 10 10 10 10 23 31 31 26 23 23 25 24 29 38
100 100 100 100 100 100 100 96 87 64 43 30 20 27 30 27 29 33 44 58 64 64 44 39 36 35 33 31 22 15 11 11 10 12 21 29 30 25 24 26 24 29 34 38

GFSNGP_500_rhum_042.txt.gz
RH
48 57 73 68 68 66 63 66 42 31 16 25 28 24 22 14 12 17 20 23 25 21 18 23 32 34 44 37 30 25 32 51 27 24 28 30 36 54 71 95 99 99 82 74
55 52 43 33 43 52 63 45 19 16 8 10 9 19 27 23 22 18 30 32 26 19 18 20 14 7 8 6 6 5 5 8 18 22 26 32 34 42 66 86 66 81 96 98
69 74 65 22 19 23 21 12 10 8 10 12 10 10 18 24 27 24 30 32 28 25 22 14 8 8 6 6 6 6 6 10 16 23 33 38 39 43 53 67 72 100 100 100
40 33 20 12 11 13 12 11 11 10 11 13 14 10 17 30 29 30 31 30 28 23 12 9 8 7 7 7 7 8 10 14 21 32 42 48 47 44 51 72 100 100 98 95
26 18 11 8 13 30 45 38 26 23 24 19 12 15 24 35 36 33 31 30 23 12 10 8 8 8 9 9 9 10 13 19 28 40 47 48 50 64 93 98 93 95 92 74
31 17 10 12 16 42 38 18 32 26 22 14 16 28 34 33 30 29 27 21 13 11 10 10 10 11 12 12 14 16 21 29 41 48 51 61 79 90 93 94 92 78 51 17
28 16 12 18 11 10 21 26 28 28 21 19 26 31 32 32 29 24 15 13 12 12 13 13 14 15 15 16 18 21 25 37 47 52 60 80 96 97 96 90 71 45 22 9
40 24 22 16 8 14 25 22 24 24 20 24 32 33 31 21 15 14 14 14 14 15 16 16 17 18 18 19 22 26 36 46 54 65 82 94 97 91 86 76 48 22 10 8
44 35 35 10 10 16 25 27 24 24 24 27 28 16 15 14 15 16 16 16 16 16 17 19 20 21 22 25 30 38 46 54 68 76 85 85 85 84 78 51 24 10 8 8
45 44 37 10 11 12 12 14 15 15 15 15 16 16 17 17 17 16 16 16 17 18 20 22 24 26 29 33 40 46 57 70 74 77 81 81 83 81 49 16 9 8 8 10
36 40 26 15 14 14 15 15 16 18 19 19 18 18 18 17 17 17 18 18 20 21 24 31 34 36 36 43 52 64 72 73 75 78 79 81 78 43 16 9 9 10 11 12
44 57 26 18 17 18 20 20 21 21 20 20 21 24 26 25 24 22 21 21 24 31 39 43 45 45 50 63 74 76 75 77 78 79 82 76 44 19 10 11 12 13 14 16
91 66 52 40 29 24 26 29 27 25 24 23 25 27 28 26 24 24 27 33 44 53 58 57 56 61 73 81 79 78 81 82 85 86 67 27 13 11 10 11 12 13 17 23
100 83 61 58 47 34 30 31 31 28 26 29 33 33 31 31 39 46 53 63 68 70 68 67 71 80 86 81 81 86 87 90 87 49 19 14 12 11 11 10 8 8 16 21
96 98 100 88 63 59 51 43 39 41 44 43 40 38 44 65 70 71 75 79 80 76 79 84 90 90 87 90 97 98 93 80 40 18 13 12 12 11 11 12 14 15 14 17
99 100 87 98 71 65 63 64 60 57 48 72 73 71 80 80 84 86 87 88 90 96 99 98 91 91 96 100 100 100 94 51 19 13 12 12 12 12 13 16 17 15 15 17
74 83 100 100 83 69 78 73 68 64 100 100 96 88 88 96 97 99 99 100 100 100 97 96 96 98 100 100 100 100 70 23 13 13 13 13 13 15 15 14 14 17 19 18
100 95 99 97 92 91 73 67 76 100 98 94 95 98 100 100 100 100 100 100 99 100 100 100 100 100 100 100 97 68 24 14 14 13 15 15 16 14 13 16 18 17 13 10
98 99 97 81 68 58 58 66 96 100 100 98 97 99 100 100 100 100 100 100 100 100 100 100 100 100 100 96 71 26 17 14 16 19 18 16 13 16 18 17 12 8 7 14
82 80 69 66 68 71 99 100 99 94 99 100 100 100 100 100 100 100 100 100 100 100 100 100 100 100 96 57 29 25 14 22 24 20 15 15 20 19 14 8 7 7 14 27
82 89 95 100 100 100 98 100 100 100 100 100 100 100 100 100 100 100 100 100 100 100 100 100 99 80 48 38 22 19 28 26 19 16 18 23 22 16 8 8 8 12 25 28
100 100 100 98 98 100 98 95 95 99 100 100 100 100 100 100 100 100 100 100 100 100 100 92 68 48 30 23 30 31 24 18 18 23 25 24 20 13 9 8 9 18 26 22
100 100 100 100 95 97 100 100 100 100 100 100 100 100 100 100 100 100 100 100 100 98 82 56 37 28 26 30 29 24 21 22 28 29 26 24 16 11 10 9 11 19 23 20
100 97 96 100 100 100 100 100 100 100 100 100 100 100 100 100 100 100 100 100 96 78 49 37 30 26 29 29 24 27 28 31 32 30 28 21 12 11 12 11 13 22 23 22
100 100 100 100 100 100 100 100 100 100 100 100 100 100 100 100 100 100 98 90 67 43 33 26 26 30 28 34 39 39 34 34 34 33 30 17 12 13 14 14 20 26 24 23
100 100 100 100 100 100 100 100 100 100 100 100 100 100 100 100 97 85 63 39 28 23 24 31 37 42 47 47 47 38 37 38 37 36 30 15 13 15 16 20 27 26 25 24
100 100 100 100 100 100 100 100 100 100 100 100 99 96 86 66 43 33 40 34 32 39 48 60 60 54 53 52 44 39 44 44 41 37 25 15 15 18 19 26 29 26 25 24